CW8398 Weather Reports


time (UTC)temp
F
wind
direction
speed
knots
gust
knots
rain 1hr
in
rain 24hr
in
rain mn
in
humidity
%
barometer
mb
20260506103802 52 65 2.6 7.8 0.00 0.00 0.00 42 1012.2
20260506103302 52 155 2.6 7.0 0.00 0.00 0.00 41 1012.2
20260506102802 53 195 2.6 7.8 0.00 0.00 0.00 41 1012.2
20260506102305 52 153 2.6 7.8 0.00 0.00 0.00 38 1012.4
20260506101802 52 157 2.6 5.2 0.00 0.00 0.00 37 1012.4
20260506100302 52 351 1.7 4.3 0.00 0.00 0.00 36 1012.4
20260506095803 52 335 1.7 2.6 0.00 0.00 0.00 34 1012.4
20260506094802 51 32 0.9 2.6 0.00 0.00 0.00 35 1012.4
20260506094302 52 32 0.9 2.6 0.00 0.00 0.00 36 1012.4
20260506093802 50 19 0.0 0.9 0.00 0.00 0.00 34 1012.4
20260506093302 51 351 0.9 2.6 0.00 0.00 0.00 33 1012.3
20260506092802 51 15 1.7 2.6 0.00 0.00 0.00 32 1012.3
20260506092302 51 30 0.0 2.6 0.00 0.00 0.00 37 1012.3
20260506091802 50 322 0.9 6.1 0.00 0.00 0.00 36 1012.3
20260506091302 51 7 1.7 6.1 0.00 0.00 0.00 37 1012.3
20260506090802 51 11 1.7 2.6 0.00 0.00 0.00 38 1012.3
20260506090302 50 19 1.7 2.6 0.00 0.00 0.00 37 1012.3
20260506085305 50 30 0.9 2.6 0.00 0.00 0.00 40 1012.3
20260506084302 49 356 1.7 2.6 0.00 0.00 0.00 40 1012.3
20260506083302 49 48 1.7 2.6 0.00 0.00 0.00 42 1012.2
20260506082802 49 22 0.0 2.6 0.00 0.00 0.00 44 1012.2
20260506082304 48 25 1.7 2.6 0.00 0.00 0.00 45 1012.2
20260506081802 48 3 0.9 1.7 0.00 0.00 0.00 47 1012.2
20260506081302 47 39 1.7 2.6 0.00 0.00 0.00 46 1012.0
20260506080802 47 40 1.7 2.6 0.00 0.00 0.00 47 1012.0
20260506073302 46 0 1.7 2.6 0.00 0.00 0.00 53 1010.1
20260506072803 46 20 0.9 2.6 0.00 0.00 0.00 54 1010.1
20260506072305 45 24 1.7 2.6 0.00 0.00 0.00 55 1010.1
20260506071803 45 24 0.9 2.6 0.00 0.00 0.00 57 1010.1
20260506071302 45 16 0.9 2.6 0.00 0.00 0.00 58 1010.1
20260506070802 45 40 1.7 2.6 0.00 0.00 0.00 58 1010.1
20260506070303 44 11 1.7 2.6 0.00 0.00 0.00 58 1010.1
20260506062305 44 3 0.0 1.7 0.00 0.00 0.00 65 1010.1
20260506061302 43 290 0.9 2.6 0.00 0.00 0.00 65 1010.1
20260506060803 43 288 0.9 2.6 0.00 0.00 0.00 66 1010.1
20260506060302 43 303 0.9 2.6 0.00 0.00 0.00 66 1010.1
20260506051302 41 276 0.9 2.6 0.00 0.00 0.00 76 1010.1
20260506050303 40 293 0.9 2.6 0.00 0.00 0.00 78 1010.1
20260506044302 39 355 0.9 2.6 0.00 0.00 0.00 84 1010.1
20260506043803 38 307 1.7 2.6 0.00 0.00 0.00 86 1010.1
20260506043302 38 358 0.9 2.6 0.00 0.00 0.00 88 1010.1
20260506042803 37 324 0.9 2.6 0.00 0.00 0.00 90 1010.1
20260506042305 36 269 1.7 2.6 0.00 0.00 0.00 93 1010.1
20260506041802 35 304 0.9 1.7 0.00 0.00 0.00 95 1010.1
20260506041303 35 206 0.0 0.9 0.00 0.00 0.00 95 1010.1
20260506040802 34 206 0.0 0.9 0.00 0.00 0.00 95 1010.1
20260506040303 34 206 0.0 0.9 0.00 0.00 0.00 95 1010.1
20260506035802 34 206 0.0 0.9 0.00 0.00 0.00 95 1010.1
20260506035305 34 207 0.0 1.7 0.00 0.00 0.00 95 1010.1
20260506034802 34 205 0.9 2.6 0.00 0.00 0.00 95 1010.1
20260506034303 33 252 0.9 1.7 0.00 0.00 0.00 95 1010.1
20260506033802 33 252 0.0 0.0 0.00 0.00 0.00 95 1010.1
20260506032803 33 252 0.0 1.7 0.00 0.00 0.00 95 1010.1
20260506032305 33 252 0.9 1.7 0.00 0.00 0.00 94 1010.1
20260506031802 33 252 0.0 0.9 0.00 0.00 0.00 95 1010.1
20260506031303 34 252 0.0 0.9 0.00 0.00 0.00 95 1010.1
20260506030802 34 252 0.9 1.7 0.00 0.00 0.00 95 1010.1
20260506030302 34 260 0.0 0.9 0.00 0.00 0.00 95 1010.1
20260506025803 34 260 0.0 1.7 0.00 0.00 0.00 95 1010.1
20260506025305 34 260 0.0 0.9 0.00 0.00 0.00 95 1010.1
20260506024803 34 279 0.0 1.7 0.00 0.00 0.00 96 1010.1
20260506024303 34 331 0.0 0.9 0.00 0.00 0.00 95 1010.1
20260506023802 34 331 0.0 0.9 0.00 0.00 0.00 95 1010.1
20260506023303 34 331 0.0 0.9 0.00 0.00 0.00 95 1010.1
20260506022803 35 331 0.0 0.9 0.00 0.00 0.00 95 1010.1
20260506022305 35 331 0.0 0.9 0.00 0.00 0.00 96 1010.1
20260506021802 35 301 0.0 1.7 0.00 0.00 0.00 96 1010.0
20260506020802 34 227 0.0 0.9 0.00 0.00 0.00 95 1009.7
20260506020303 34 217 0.0 0.0 0.00 0.00 0.00 95 1009.7
20260506015802 34 217 0.0 0.0 0.00 0.00 0.00 95 1009.7
20260506014803 34 217 0.0 0.0 0.00 0.00 0.00 95 1009.7
20260506014302 34 217 0.0 0.9 0.00 0.00 0.00 95 1009.7
20260506013803 34 217 0.0 0.0 0.00 0.00 0.00 95 1009.7
20260506013302 34 217 0.0 0.0 0.00 0.00 0.00 95 1009.7
20260506012803 35 217 0.0 0.9 0.00 0.00 0.00 95 1009.7
20260506011802 35 217 0.0 0.9 0.00 0.00 0.00 95 1009.6
20260506011303 35 217 0.0 0.9 0.00 0.00 0.00 95 1009.5
20260506010803 35 217 0.0 0.9 0.00 0.00 0.00 95 1009.5
20260506005803 34 215 0.0 0.9 0.00 0.00 0.00 95 1009.3
20260506005305 34 215 0.9 1.7 0.00 0.00 0.00 95 1009.3
20260506004802 34 215 0.0 0.9 0.00 0.00 0.00 95 1008.9
20260506004303 35 215 0.0 0.9 0.00 0.00 0.00 95 1008.9
20260506003803 35 215 0.0 0.9 0.00 0.00 0.00 95 1008.9
20260506003303 36 215 0.9 2.6 0.00 0.00 0.00 95 1008.9
20260506002305 36 215 0.0 2.6 0.00 0.00 0.00 95 1008.9
20260506001303 35 223 0.0 0.0 0.00 0.00 0.00 95 1008.9
20260506000803 34 223 0.0 0.9 0.00 0.00 0.00 95 1008.9
20260506000302 34 223 0.0 1.7 0.00 0.00 0.00 95 1008.9
20260505235305 34 223 0.9 1.7 0.00 0.00 0.00 95 1008.9
20260505234802 34 223 0.9 2.6 0.00 0.00 0.00 95 1008.9
20260505234302 34 223 0.9 1.7 0.00 0.00 0.00 94 1008.9
20260505233803 35 223 0.9 1.7 0.00 0.00 0.00 94 1008.8
20260505233303 35 223 0.0 1.7 0.00 0.00 0.00 94 1008.8
20260505232803 36 223 0.0 0.0 0.00 0.00 0.00 95 1008.8
20260505232305 36 223 0.0 0.9 0.00 0.00 0.00 95 1008.8
20260505231802 36 223 0.0 0.9 0.00 0.00 0.00 94 1008.8
20260505231303 37 223 0.9 1.7 0.00 0.00 0.00 95 1008.8
20260505230803 38 265 0.0 0.9 0.00 0.00 0.00 95 1008.8
20260505230303 38 265 0.9 1.7 0.00 0.00 0.00 95 1008.8
20260505225802 38 245 0.0 1.7 0.00 0.00 0.00 95 1008.8
20260505225305 37 240 0.0 0.9 0.00 0.00 0.00 95 1008.5
20260505224303 37 162 0.0 0.9 0.00 0.00 0.00 94 1008.5
20260505223803 37 161 0.0 0.9 0.00 0.00 0.00 94 1008.5
20260505223303 37 161 0.0 0.9 0.00 0.00 0.00 95 1008.5
20260505222803 36 162 0.0 0.9 0.00 0.00 0.00 94 1008.5
20260505222305 36 162 0.0 0.9 0.00 0.00 0.00 94 1008.5
20260505221802 37 162 0.0 0.0 0.00 0.00 0.00 94 1008.5
20260505221303 37 162 0.0 0.0 0.00 0.00 0.00 94 1008.5
20260505220816 37 162 0.0 0.0 0.00 0.00 0.00 94 1008.5
20260505220302 37 162 0.0 0.0 0.00 0.00 0.00 94 1008.3
20260505215803 37 161 0.0 0.0 0.00 0.00 0.00 94 1008.3
20260505215305 38 162 0.0 1.7 0.00 0.00 0.00 94 1008.3
20260505214803 38 162 0.0 1.7 0.00 0.00 0.00 94 1008.3
20260505214302 38 162 0.0 1.7 0.00 0.00 0.00 94 1008.3
20260505213803 38 162 0.0 0.0 0.00 0.00 0.00 94 1008.3
20260505213302 38 162 0.0 0.9 0.00 0.00 0.00 94 1008.2
20260505212802 37 38 0.9 1.7 0.00 0.00 0.00 94 1008.2
20260505211803 38 34 0.0 1.7 0.00 0.00 0.00 93 1008.1
20260505211303 38 34 0.0 0.0 0.00 0.00 0.00 94 1008.1
20260505210303 38 34 0.0 0.0 0.00 0.00 0.00 93 1007.7
20260505205803 38 34 0.0 0.0 0.00 0.00 0.00 94 1007.7
20260505205305 38 34 0.0 0.0 0.00 0.00 0.00 93 1007.7
20260505204802 38 34 0.0 0.0 0.00 0.00 0.00 94 1007.7
20260505204302 38 34 0.0 0.0 0.00 0.00 0.00 94 1007.7
20260505203803 38 34 0.0 0.0 0.00 0.00 0.00 94 1007.7
20260505203303 37 34 0.0 0.0 0.00 0.00 0.00 93 1007.7
20260505202803 37 34 0.0 0.0 0.00 0.00 0.00 93 1007.7
20260505202306 37 34 0.9 0.9 0.00 0.00 0.00 93 1007.7
20260505201802 37 34 0.9 1.7 0.00 0.00 0.00 93 1007.2
20260505201302 38 34 0.9 0.9 0.00 0.00 0.00 93 1007.2
20260505200303 38 34 0.0 0.9 0.00 0.00 0.00 92 1007.2
20260505195803 38 34 0.0 0.9 0.00 0.00 0.00 92 1007.2
20260505195305 39 34 0.0 0.0 0.00 0.00 0.00 92 1007.2
20260505194802 39 34 0.0 0.9 0.00 0.00 0.00 92 1007.2
20260505194303 39 34 0.0 0.9 0.00 0.00 0.00 91 1007.2
20260505193303 39 34 0.0 0.9 0.00 0.00 0.00 91 1007.2
20260505192305 40 23 0.0 0.0 0.00 0.00 0.00 90 1007.2
20260505191802 40 23 0.0 0.9 0.00 0.00 0.00 89 1007.2
20260505191303 41 23 0.0 1.7 0.00 0.00 0.00 89 1007.2
20260505190303 41 342 0.9 1.7 0.00 0.00 0.00 89 1006.6
20260505185803 41 4 0.9 2.6 0.00 0.00 0.00 89 1006.6
20260505185305 41 19 0.0 2.6 0.00 0.00 0.00 88 1006.6
20260505184803 42 36 0.9 1.7 0.00 0.00 0.00 89 1006.6
20260505184303 41 40 0.0 2.6 0.00 0.00 0.00 88 1006.6
20260505183803 42 32 0.0 1.7 0.00 0.00 0.00 88 1006.6
20260505183303 42 32 0.9 1.7 0.00 0.00 0.00 87 1006.6
20260505182803 42 31 0.9 2.6 0.00 0.00 0.00 88 1006.6
20260505182305 42 32 0.9 2.6 0.00 0.00 0.00 87 1006.6
20260505181803 43 56 0.9 2.6 0.00 0.00 0.00 87 1006.6
20260505181303 43 15 0.9 2.6 0.00 0.00 0.00 87 1006.6
20260505180803 43 31 0.9 2.6 0.00 0.00 0.00 87 1006.6
20260505180303 43 21 1.7 5.2 0.00 0.00 0.00 87 1006.6
20260505175803 43 1 1.7 2.6 0.00 0.00 0.00 87 1006.6
20260505174803 43 38 0.9 2.6 0.00 0.00 0.00 87 1006.2
20260505174303 43 21 0.9 2.6 0.00 0.00 0.00 86 1006.2
20260505173803 43 26 1.7 2.6 0.00 0.00 0.00 86 1006.2
20260505173303 43 5 2.6 5.2 0.00 0.00 0.00 85 1006.2
20260505172305 44 27 1.7 2.6 0.00 0.00 0.00 85 1006.2
20260505171803 44 20 2.6 4.3 0.00 0.00 0.00 85 1006.0
20260505170803 44 344 1.7 4.3 0.00 0.00 0.00 85 1006.0
20260505170303 44 21 1.7 4.3 0.00 0.00 0.00 85 1006.0
20260505165305 45 21 1.7 4.3 0.00 0.00 0.00 84 1005.7
20260505164803 45 15 1.7 4.3 0.00 0.00 0.00 84 1005.7
20260505164303 45 12 1.7 4.3 0.00 0.00 0.00 84 1005.7
20260505163803 45 39 2.6 5.2 0.00 0.00 0.00 85 1005.7
20260505163303 45 349 1.7 4.3 0.00 0.00 0.00 85 1005.7
20260505162803 45 348 1.7 4.3 0.00 0.00 0.00 84 1005.7
20260505161803 46 13 1.7 4.3 0.00 0.00 0.00 82 1005.2
20260505161303 46 347 1.7 7.0 0.00 0.00 0.00 82 1005.2
20260505160303 45 35 2.6 4.3 0.00 0.00 0.00 83 1005.2
20260505153303 48 4 4.3 7.0 0.00 0.00 0.00 77 1005.2
20260505152803 48 11 1.7 7.0 0.00 0.00 0.00 74 1005.2
20260505151803 50 347 1.7 4.3 0.00 0.00 0.00 61 1005.2
20260505150803 51 21 3.5 8.7 0.00 0.00 0.00 49 1005.2
20260505150302 51 335 1.7 5.2 0.00 0.00 0.00 42 1005.2
20260505140303 53 27 3.5 8.7 0.00 0.00 0.00 38 1005.0
20260505130303 53 327 2.6 7.8 0.00 0.00 0.00 40 1004.9
20260505124803 53 9 3.5 5.2 0.00 0.00 0.00 40 1004.9
20260505124303 53 77 2.6 8.7 0.00 0.00 0.00 40 1004.9
20260505122803 51 304 2.6 4.3 0.00 0.00 0.00 44 1004.8
20260505121803 52 268 6.1 10.4 0.00 0.00 0.00 40 1004.8
20260505120803 52 288 2.6 7.8 0.00 0.00 0.00 43 1004.8
20260505120303 51 283 2.6 6.1 0.00 0.00 0.00 43 1004.8
20260505115305 51 270 5.2 10.4 0.00 0.00 0.00 43 1004.8
20260505114803 51 288 2.6 7.8 0.00 0.00 0.00 45 1004.7
20260505113803 51 282 2.6 7.0 0.00 0.00 0.00 46 1004.7
20260505113303 51 283 2.6 7.8 0.00 0.00 0.00 50 1004.7
20260505112803 50 295 3.5 4.3 0.00 0.00 0.00 49 1004.7
20260505112305 51 2 1.7 4.3 0.00 0.00 0.00 51 1004.7
20260505111803 51 63 1.7 8.7 0.00 0.00 0.00 50 1004.7
20260505111303 51 270 2.6 8.7 0.00 0.00 0.00 50 1004.7
20260505110803 52 213 1.7 5.2 0.00 0.00 0.00 50 1004.7
20260505110303 52 341 1.7 5.2 0.00 0.00 0.00 50 1004.6